Location: Hains Lake
(37.8540°N, 99.8578°W)
Time: 21:54:38
(UTC+00:00)

Explorer 7 - Pass Details

Date: 22 April 2021
Orbit: 484 x 677 km, 50.3° (Epoch: 13 May)

Event Time Altitude Azimuth Distance (km) Brightness Sun altitude
Rises 03:00:58 0° 270° (W) 2,626 11.3 -18.7°
Reaches altitude 10° 03:03:27 10° 285° (WNW) 1,771 10.5 -19.1°
Maximum altitude 03:06:44 24° 340° (NNW) 1,173 9.1 -19.6°
Drops below altitude 10° 03:10:12 10° 35° (NE) 1,870 9.5 -20.2°
Enters shadow 03:12:21 - 47° (NE) 2,611 10.2 -20.6°
